SCP
0 0 0 0 0 0 0 0 0 0 0 0 0 0 0 0 0 0 0 0 0 1 1 1 1 1 0 0 0 0 0 0 0 0 1 1 1 1
0 0 0 0 0 0 0 0 0 0 0 0 0 0 0 0 0 0 0 0 0 0 1 1 1 0 0 0 0 0 0 0 0 0 1 1 1 1
0 0 0 0 0 0 0 0 0 0 0 0 0 0 0 0 0 0 0 0 0 0 0 0 0 0 0 0 0 0 0 0 0 0 0 1 1 1
0 0 0 0 0 0 0 0 0 0 0 0 0 0 0 0 0 0 0 0 0 0 0 0 0 0 0 0 0 0 0 0 0 0 0 0 0 0
0 0 0 0 0 0 0 0 0 0 0 0 0 0 0 0 0 0 0 0 0 0 0 0 0 0 0 0 0 0 0 0 0 0 0 0 0 0
0 0 0 0 0 0 0 0 0 0 0 0 0 0 0 0 0 0 0 0 0 0 0 0 0 0 0 0 0 0 0 0 0 0 0 0 0 0
0 0 0 0 0 0 0 0 0 0 0 0 0 0 0 0 0 0 0 0 0 0 0 0 0 0 0 0 0 0 0 0 0 0 0 0 0 0
0 0 0 0 0 0 0 0 0 0 0 0 0 0 0 0 0 0 0 0 0 0 0 0 0 0 0 0 0 0 0 0 0 0 0 0 0 0
0 0 0 0 0 0 0 0 0 0 0 0 0 0 0 0 0 0 0 0 0 0 0 0 0 0 0 0 0 0 0 0 0 0 0 0 0 0
0 0 0 0 0 0 0 0 0 0 0 0 0 0 0 0 0 0 0 0 0 0 0 0 0 0 0 0 0 0 0 0 0 0 0 0 0 0
0 0 0 0 0 0 0 0 0 0 0 0 0 0 0 0 0 0 0 0 0 0 0 0 0 0 0 0 0 0 0 0 0 0 0 0 0 0
0 0 0 0 0 0 0 0 0 0 0 0 0 0 0 0 0 0 0 0 0 0 0 0 0 0 0 0 0 0 0 0 0 0 0 0 0 0
0 0 0 0 0 0 0 0 0 0 0 0 0 0 0 0 0 0 0 0 0 0 0 0 0 0 0 0 0 0 0 0 0 0 0 0 0 0
0 0 0 0 0 0 0 0 0 0 0 0 0 0 0 0 0 0 0 0 0 0 0 0 0 0 0 0 0 0 0 0 0 0 0 0 0 0
0 0 0 0 0 0 0 0 0 0 0 0 0 0 0 0 0 0 0 0 0 0 0 0 0 0 0 0 0 0 0 0 0 0 0 0 0 0
0 0 0 0 0 0 0 0 0 0 0 0 0 0 0 0 0 0 0 0 0 0 0 0 0 0 0 0 0 0 0 0 0 0 0 0 0 0
0 0 0 0 0 0 0 0 0 0 0 0 0 0 0 0 0 0 0 0 0 0 0 0 0 0 0 0 0 0 0 0 0 0 0 0 0 0
0 0 0 0 0 0 0 0 0 0 0 0 0 0 0 0 0 0 0 0 0 0 0 0 0 0 0 0 0 0 0 0 0 0 0 0 0 0
0 0 0 0 0 0 0 0 0 0 0 0 0 0 0 0 0 0 0 0 0 0 0 0 0 0 0 0 0 0 0 0 0 0 0 0 0 0
0 0 0 0 0 0 0 0 0 0 0 0 0 0 0 0 0 0 0 0 0 0 0 0 0 0 0 0 0 0 0 0 0 0 0 0 0 0
0 0 0 0 0 0 0 0 0 0 0 0 0 0 0 0 0 0 0 0 0 0 0 0 0 0 0 0 0 0 0 0 0 0 0 0 0 0
0 0 0 0 0 0 0 0 0 0 0 0 0 0 0 0 0 0 0 0 0 0 0 0 0 0 0 0 0 0 0 0 0 0 0 0 0 0
0 0 0 0 0 0 0 0 0 0 0 0 0 0 0 0 0 0 0 0 0 0 0 0 0 0 0 0 0 0 0 0 0 0 0 0 0 0
Wind_Speed
2 2 2 2 2 2 2 3 4 6 6 4 3 2 3 3 6 4 5 10 12 12 11 10 10 9 8 9 9 10 11 11 11 11 12 12 14 15
2 2 3 3 3 2 2 3 3 5 7 4 4 4 4 5 7 5 6 11 11 11 11 10 10 9 9 9 10 10 11 11 11 12 13 13 13 14
3 3 3 3 3 3 3 3 3 4 7 6 4 4 4 5 5 5 5 5 6 11 11 10 10 10 10 10 10 10 11 11 12 12 13 13 14 14
3 3 4 4 4 3 3 4 4 4 5 8 5 4 5 5 5 6 6 6 5 9 10 10 10 10 10 10 10 10 11 11 12 12 13 13 14 14
3 4 4 4 4 4 4 4 4 4 4 6 6 4 4 4 5 5 5 5 6 7 9 9 10 10 10 10 11 11 11 11 12 12 12 13 13 14
4 4 4 4 5 5 4 4 4 4 4 5 6 5 5 4 3 4 6 4 5 5 6 7 9 10 10 11 11 10 10 11 11 12 12 12 12 13
4 4 5 6 7 6 5 4 4 4 4 5 5 5 5 4 4 4 6 6 5 3 3 4 5 4 5 8 9 10 11 11 11 12 12 13 13 13
5 5 5 6 7 9 9 8 6 5 5 5 5 6 6 5 5 5 5 5 5 2 3 6 4 4 4 4 8 11 11 12 11 12 12 12 13 13
5 5 5 5 6 5 7 9 8 10 9 6 6 7 7 6 6 6 5 6 6 4 4 6 3 5 5 6 10 11 11 11 11 11 12 12 12 13
4 4 5 5 5 5 5 5 6 6 7 6 6 7 7 6 6 6 6 6 5 4 3 5 4 4 6 6 9 10 10 10 11 12 13 12 12 12
4 4 5 5 9 10 6 5 6 6 8 9 10 9 10 10 8 4 4 4 5 4 2 3 3 5 5 5 5 8 9 11 12 13 12 12 12 11
4 4 7 7 9 10 6 5 7 7 6 6 6 7 6 7 8 5 4 4 4 4 2 2 3 4 4 3 3 4 5 8 11 12 12 12 12 7
4 4 4 9 11 11 9 5 7 8 5 5 5 4 4 3 4 4 4 4 4 5 3 2 3 3 4 5 4 4 4 4 5 7 9 12 12 9
4 4 5 10 10 10 8 8 10 9 4 4 4 4 4 4 4 4 4 4 5 6 5 4 4 4 5 6 6 4 4 4 5 5 5 9 10 11
4 7 9 10 9 7 8 9 7 4 3 4 4 4 4 4 4 4 4 4 4 4 4 5 5 5 5 6 6 5 5 5 4 4 5 5 5 5
4 6 8 8 6 7 7 5 3 3 3 4 4 4 3 3 3 3 3 4 4 4 3 4 5 5 5 7 6 7 5 4 4 5 6 6 5 5
3 2 2 3 3 3 3 3 3 3 4 4 3 4 4 4 4 3 3 3 3 5 5 4 3 4 5 6 6 6 5 5 5 5 6 6 6 5
3 3 3 3 4 4 4 4 3 3 3 4 3 3 3 4 4 3 3 3 4 4 5 4 4 5 3 3 5 6 5 4 5 5 5 6 7 5
4 3 4 4 4 4 4 4 4 3 3 3 3 3 3 4 4 4 4 4 4 4 4 4 3 3 5 6 4 3 4 5 5 5 4 5 7 7
3 4 4 4 4 4 4 4 4 3 3 3 3 3 3 3 3 4 4 4 4 4 5 4 3 3 4 5 6 6 6 5 4 5 5 5 6 7
4 4 4 4 4 4 4 4 4 4 4 3 3 4 3 3 3 3 4 6 5 4 5 5 5 7 4 3 4 5 5 5 6 5 5 5 5 5
4 4 4 4 4 4 4 4 4 4 4 3 3 3 3 3 4 4 4 4 4 4 5 5 5 4 3 3 5 6 6 6 6 7 7 6 4 4
4 4 4 4 4 4 4 4 5 4 4 3 3 3 3 3 3 3 4 4 4 4 5 5 5 4 3 3 4 5 6 6 4 4 4 6 8 9
Wind_Direction
303 304 298 295 291 286 283 273 272 286 287 285 287 292 300 296 303 301 298 302 300 295 292 289 289 289 290 289 291 292 294 285 283 282 282 282 278 274
300 304 304 300 299 289 282 280 267 267 277 284 284 290 299 301 306 303 295 305 298 295 292 290 288 286 284 286 287 286 291 287 284 281 280 280 283 282
312 309 304 302 298 298 293 282 271 265 273 285 284 289 282 288 299 298 295 293 292 294 291 290 288 284 284 285 285 284 286 284 279 278 279 280 281 284
303 303 299 299 299 294 291 285 275 267 271 283 289 287 278 283 289 296 304 305 296 295 293 293 291 286 284 283 281 279 280 280 275 277 278 279 282 284
286 287 289 291 291 293 292 287 280 279 274 279 286 285 283 288 295 296 295 294 298 296 290 286 288 288 287 285 281 280 280 279 274 274 278 278 280 282
283 282 283 282 282 286 286 285 287 285 284 281 284 288 286 288 290 295 301 302 297 295 293 296 293 290 286 286 283 281 279 276 276 276 278 280 278 279
287 284 283 284 281 282 286 286 288 288 287 287 288 291 290 295 291 290 297 302 295 277 288 291 290 281 278 283 284 282 282 277 274 276 277 278 277 277
285 287 287 288 291 294 292 288 284 284 285 281 284 286 288 287 287 287 294 302 298 276 296 296 285 282 282 272 282 287 284 279 278 280 280 279 278 278
278 284 291 293 297 296 296 297 294 292 286 279 279 278 280 279 286 288 284 285 281 282 293 288 281 282 282 283 285 282 280 281 284 287 286 283 282 282
277 281 284 291 293 296 296 299 291 289 289 283 270 273 273 273 269 275 276 283 285 279 272 280 285 282 292 286 277 276 281 284 287 289 289 288 285 284
285 286 287 288 295 301 298 294 299 298 297 291 288 290 294 294 290 289 285 287 292 288 268 268 285 297 287 274 267 276 287 291 292 290 290 292 289 287
287 285 284 291 297 301 297 294 297 298 301 304 298 296 295 294 293 275 264 267 287 287 257 278 284 311 302 277 273 275 277 285 293 292 293 295 293 284
282 286 287 296 298 300 299 290 291 302 304 298 294 293 294 295 296 287 270 256 264 267 264 284 280 284 273 292 289 272 266 282 289 287 291 293 292 287
274 280 285 295 298 301 303 302 306 313 309 301 297 299 301 300 296 290 280 269 259 262 263 262 265 269 278 285 284 282 280 280 281 283 284 290 289 287
271 284 293 297 300 300 301 307 311 310 307 303 299 294 290 288 292 293 290 290 289 278 270 263 255 262 267 271 277 283 295 288 273 280 289 292 286 284
276 283 291 296 296 296 302 306 304 296 298 292 294 292 294 296 295 298 300 311 312 306 292 271 257 260 273 274 271 275 277 275 285 291 291 289 287 281
293 294 290 297 295 296 299 298 299 303 302 298 293 300 307 308 304 304 295 302 299 301 311 312 299 281 266 265 269 265 271 277 278 286 291 293 288 283
276 275 274 276 282 291 296 298 294 295 297 299 295 297 302 304 307 309 304 297 295 298 299 304 314 317 310 287 250 260 271 279 287 287 282 288 288 287
256 264 269 272 277 283 288 291 293 295 296 296 297 294 295 299 303 306 305 302 297 296 297 299 304 308 308 307 297 258 273 291 292 290 283 281 283 290
253 260 267 270 273 276 281 286 291 295 294 294 296 296 291 293 298 299 300 299 300 304 304 302 301 298 287 285 289 291 282 276 284 287 290 290 281 287
256 259 262 265 269 271 273 278 282 283 286 289 290 292 293 292 291 293 297 298 302 302 302 302 295 299 292 287 287 289 291 284 281 280 289 293 294 296
256 259 261 262 266 268 270 274 279 279 279 280 284 287 288 289 287 288 292 297 299 296 297 299 301 308 298 284 287 292 301 307 303 297 287 275 283 287
257 258 260 261 262 262 262 264 268 272 268 272 276 279 283 287 286 284 286 291 299 301 305 307 311 310 299 284 286 292 299 307 313 321 316 315 300 288